Time,TemperatureF,DewpointF,PressureIn,WindDirection,WindDirectionDegrees,WindSpeedMPH,WindSpeedGustMPH,Humidity,HourlyPrecipIn,Conditions,Clouds,dailyrainin,SoftwareType,DateUTC
2013-07-22 00:02:00,71.2,65.8,29.76,WSW,257,0.0,0.0,83,0.00,,,0.00,meteohub,2013-07-22 05:02:00,
2013-07-22 00:07:00,71.1,65.7,29.76,WSW,256,0.0,0.0,83,0.00,,,0.00,meteohub,2013-07-22 05:07:00,
2013-07-22 00:12:00,71.1,65.7,29.76,West,271,0.0,0.0,83,0.00,,,0.00,meteohub,2013-07-22 05:12:00,
2013-07-22 00:17:00,70.9,65.5,29.76,WNW,299,0.0,0.0,83,0.00,,,0.00,meteohub,2013-07-22 05:17:00,
2013-07-22 00:22:00,70.9,65.5,29.76,West,276,0.0,2.0,83,0.00,,,0.00,meteohub,2013-07-22 05:22:00,
2013-07-22 00:27:00,70.7,65.3,29.77,West,271,0.0,2.0,83,0.00,,,0.00,meteohub,2013-07-22 05:27:00,
2013-07-22 00:32:00,70.5,65.1,29.77,West,265,0.0,2.0,83,0.00,,,0.00,meteohub,2013-07-22 05:32:00,
2013-07-22 00:37:00,70.5,65.1,29.77,West,265,0.0,1.0,83,0.00,,,0.00,meteohub,2013-07-22 05:37:00,
2013-07-22 00:42:00,70.5,65.1,29.76,West,259,0.0,0.0,83,0.00,,,0.00,meteohub,2013-07-22 05:42:00,
2013-07-22 00:47:00,70.3,64.9,29.76,West,261,0.0,0.0,83,0.00,,,0.00,meteohub,2013-07-22 05:47:00,
2013-07-22 00:52:00,70.3,64.9,29.75,West,261,0.0,0.0,83,0.00,,,0.00,meteohub,2013-07-22 05:52:00,
2013-07-22 00:57:00,70.2,64.8,29.76,West,261,0.0,0.0,83,0.00,,,0.00,meteohub,2013-07-22 05:57:00,
2013-07-22 01:02:00,70.2,64.8,29.77,West,260,0.0,0.0,83,0.00,,,0.00,meteohub,2013-07-22 06:02:00,
2013-07-22 01:07:00,70.0,64.9,29.76,North,349,0.0,3.0,84,0.00,,,0.00,meteohub,2013-07-22 06:07:00,
2013-07-22 01:12:00,70.0,64.9,29.75,North,0,0.0,3.0,84,0.00,,,0.00,meteohub,2013-07-22 06:12:00,
2013-07-22 01:17:00,70.0,64.9,29.75,North,0,0.0,3.0,84,0.00,,,0.00,meteohub,2013-07-22 06:17:00,
2013-07-22 01:22:00,69.8,64.8,29.74,North,0,0.0,2.0,84,0.00,,,0.00,meteohub,2013-07-22 06:22:00,
2013-07-22 01:27:00,69.6,64.6,29.75,North,0,0.0,2.0,84,0.00,,,0.00,meteohub,2013-07-22 06:27:00,
2013-07-22 01:32:00,69.6,64.6,29.75,North,0,0.0,0.0,84,0.00,,,0.00,meteohub,2013-07-22 06:32:00,
2013-07-22 01:37:00,69.6,64.6,29.75,North,0,0.0,0.0,84,0.00,,,0.00,meteohub,2013-07-22 06:37:00,
2013-07-22 01:42:00,69.4,64.4,29.74,North,0,0.0,0.0,84,0.00,,,0.00,meteohub,2013-07-22 06:42:00,
2013-07-22 01:47:00,69.4,64.4,29.74,North,0,0.0,1.0,84,0.00,,,0.00,meteohub,2013-07-22 06:47:00,
2013-07-22 01:52:00,69.4,64.4,29.74,SE,140,0.0,1.0,84,0.00,,,0.00,meteohub,2013-07-22 06:52:00,
2013-07-22 01:57:00,69.3,64.2,29.73,SE,140,0.0,1.0,84,0.00,,,0.00,meteohub,2013-07-22 06:57:00,
2013-07-22 02:02:00,69.3,64.2,29.73,SE,140,0.0,0.0,84,0.00,,,0.00,meteohub,2013-07-22 07:02:00,
2013-07-22 02:07:00,69.3,64.2,29.73,SE,138,0.0,0.0,84,0.00,,,0.00,meteohub,2013-07-22 07:07:00,
2013-07-22 02:12:00,69.3,64.6,29.72,SE,138,0.0,0.0,85,0.00,,,0.00,meteohub,2013-07-22 07:12:00,
2013-07-22 02:17:00,69.1,64.4,29.73,North,351,0.0,5.0,85,0.00,,,0.00,meteohub,2013-07-22 07:17:00,
2013-07-22 02:22:00,69.1,64.4,29.73,North,355,0.0,5.0,85,0.00,,,0.00,meteohub,2013-07-22 07:22:00,
2013-07-22 02:27:00,69.1,64.4,29.73,North,0,0.0,5.0,85,0.00,,,0.00,meteohub,2013-07-22 07:27:00,
2013-07-22 02:32:00,69.1,64.4,29.73,North,0,0.0,0.0,85,0.00,,,0.00,meteohub,2013-07-22 07:32:00,
2013-07-22 02:37:00,69.1,64.4,29.73,North,0,0.0,0.0,85,0.00,,,0.00,meteohub,2013-07-22 07:37:00,
2013-07-22 02:42:00,68.9,64.2,29.73,North,0,0.0,0.0,85,0.00,,,0.00,meteohub,2013-07-22 07:42:00,
2013-07-22 02:47:00,68.9,64.2,29.72,North,0,0.0,0.0,85,0.00,,,0.00,meteohub,2013-07-22 07:47:00,
2013-07-22 02:52:00,68.7,64.0,29.72,North,0,0.0,0.0,85,0.00,,,0.00,meteohub,2013-07-22 07:52:00,
2013-07-22 02:57:00,68.7,64.0,29.72,NW,319,0.0,0.0,85,0.00,,,0.00,meteohub,2013-07-22 07:57:00,
2013-07-22 03:02:00,68.7,64.0,29.72,NW,319,0.0,3.0,85,0.00,,,0.00,meteohub,2013-07-22 08:02:00,
2013-07-22 03:07:00,68.7,64.0,29.71,NW,319,0.0,3.0,85,0.00,,,0.00,meteohub,2013-07-22 08:07:00,
2013-07-22 03:12:00,68.5,63.9,29.71,NW,319,0.0,3.0,85,0.00,,,0.00,meteohub,2013-07-22 08:12:00,
2013-07-22 03:17:00,68.5,63.9,29.72,NW,319,0.0,0.0,85,0.00,,,0.00,meteohub,2013-07-22 08:17:00,
2013-07-22 03:22:00,68.5,63.9,29.71,NW,319,0.0,0.0,85,0.00,,,0.00,meteohub,2013-07-22 08:22:00,
2013-07-22 03:27:00,68.5,63.9,29.72,NW,319,0.0,0.0,85,0.00,,,0.00,meteohub,2013-07-22 08:27:00,
2013-07-22 03:32:00,68.4,63.7,29.71,NW,319,0.0,0.0,85,0.00,,,0.00,meteohub,2013-07-22 08:32:00,
2013-07-22 03:37:00,68.4,63.7,29.71,NW,319,0.0,0.0,85,0.00,,,0.00,meteohub,2013-07-22 08:37:00,
2013-07-22 03:42:00,68.4,63.7,29.71,NW,319,0.0,0.0,85,0.00,,,0.00,meteohub,2013-07-22 08:42:00,
2013-07-22 03:47:00,68.2,63.5,29.70,NW,319,0.0,0.0,85,0.00,,,0.00,meteohub,2013-07-22 08:47:00,
2013-07-22 03:52:00,68.2,63.5,29.70,NW,319,0.0,0.0,85,0.00,,,0.00,meteohub,2013-07-22 08:52:00,
2013-07-22 03:57:00,68.0,63.7,29.70,NW,319,0.0,0.0,86,0.00,,,0.00,meteohub,2013-07-22 08:57:00,
2013-07-22 04:02:00,68.0,63.7,29.70,NW,319,0.0,0.0,86,0.00,,,0.00,meteohub,2013-07-22 09:02:00,
2013-07-22 04:07:00,67.8,63.5,29.70,NW,319,0.0,0.0,86,0.00,,,0.00,meteohub,2013-07-22 09:07:00,
2013-07-22 04:12:00,67.8,63.5,29.70,NW,319,0.0,0.0,86,0.00,,,0.00,meteohub,2013-07-22 09:12:00,
2013-07-22 04:17:00,67.8,63.5,29.70,NW,319,0.0,0.0,86,0.00,,,0.00,meteohub,2013-07-22 09:17:00,
2013-07-22 04:22:00,67.8,63.5,29.70,NW,319,0.0,0.0,86,0.00,,,0.00,meteohub,2013-07-22 09:22:00,
2013-07-22 04:27:00,67.8,63.5,29.70,NW,308,0.0,0.0,86,0.00,,,0.00,meteohub,2013-07-22 09:27:00,
2013-07-22 04:32:00,67.6,63.3,29.70,NW,308,0.0,2.0,86,0.00,,,0.00,meteohub,2013-07-22 09:32:00,
2013-07-22 04:37:00,67.6,63.3,29.71,NW,307,0.0,2.0,86,0.00,,,0.00,meteohub,2013-07-22 09:37:00,
2013-07-22 04:42:00,67.6,63.3,29.71,NW,308,0.0,2.0,86,0.00,,,0.00,meteohub,2013-07-22 09:42:00,
2013-07-22 04:47:00,67.6,63.7,29.71,NW,304,0.0,0.0,87,0.00,,,0.00,meteohub,2013-07-22 09:47:00,
2013-07-22 04:52:00,67.6,63.7,29.71,NW,304,0.0,0.0,87,0.00,,,0.00,meteohub,2013-07-22 09:52:00,
2013-07-22 04:57:00,67.6,63.7,29.72,WNW,303,0.0,0.0,87,0.00,,,0.00,meteohub,2013-07-22 09:57:00,
2013-07-22 05:02:00,67.6,63.7,29.72,WNW,303,0.0,1.0,87,0.00,,,0.00,meteohub,2013-07-22 10:02:00,
2013-07-22 05:07:00,67.6,63.7,29.73,WNW,303,0.0,1.0,87,0.00,,,0.00,meteohub,2013-07-22 10:07:00,
2013-07-22 05:12:00,67.6,63.7,29.72,WNW,303,0.0,1.0,87,0.00,,,0.00,meteohub,2013-07-22 10:12:00,
2013-07-22 05:17:00,67.6,63.7,29.71,WNW,302,0.0,0.0,87,0.00,,,0.00,meteohub,2013-07-22 10:17:00,
2013-07-22 05:22:00,67.6,63.7,29.70,WNW,302,0.0,0.0,87,0.00,,,0.00,meteohub,2013-07-22 10:22:00,
2013-07-22 05:27:00,67.6,63.7,29.70,WNW,303,0.0,0.0,87,0.00,,,0.00,meteohub,2013-07-22 10:27:00,
2013-07-22 05:32:00,67.5,63.9,29.70,WNW,303,0.0,0.0,88,0.00,,,0.00,meteohub,2013-07-22 10:32:00,
2013-07-22 05:37:00,67.5,63.9,29.69,WNW,303,0.0,0.0,88,0.00,,,0.00,meteohub,2013-07-22 10:37:00,
2013-07-22 05:42:00,67.5,63.9,29.70,WNW,302,0.0,0.0,88,0.00,,,0.00,meteohub,2013-07-22 10:42:00,
2013-07-22 05:47:00,67.5,63.9,29.70,WNW,302,0.0,0.0,88,0.00,,,0.00,meteohub,2013-07-22 10:47:00,
2013-07-22 05:52:00,67.5,63.9,29.69,WNW,302,0.0,0.0,88,0.00,,,0.00,meteohub,2013-07-22 10:52:00,
2013-07-22 05:57:00,67.5,63.9,29.70,WNW,297,0.0,0.0,88,0.00,,,0.00,meteohub,2013-07-22 10:57:00,
2013-07-22 06:02:00,67.5,63.9,29.71,WNW,297,0.0,1.0,88,0.00,,,0.00,meteohub,2013-07-22 11:02:00,
2013-07-22 06:07:00,67.5,63.9,29.70,WNW,297,0.0,1.0,88,0.00,,,0.00,meteohub,2013-07-22 11:07:00,
2013-07-22 06:12:00,67.5,63.9,29.70,WNW,297,0.0,1.0,88,0.00,,,0.00,meteohub,2013-07-22 11:12:00,
2013-07-22 06:17:00,67.5,64.0,29.69,WNW,297,0.0,0.0,89,0.00,,,0.00,meteohub,2013-07-22 11:17:00,
2013-07-22 06:22:00,67.5,64.0,29.69,WNW,295,0.0,0.0,89,0.00,,,0.00,meteohub,2013-07-22 11:22:00,
2013-07-22 06:27:00,67.5,64.0,29.70,WNW,295,0.0,1.0,89,0.00,,,0.00,meteohub,2013-07-22 11:27:00,
2013-07-22 06:32:00,67.6,64.2,29.70,NW,307,0.0,3.0,89,0.00,,,0.00,meteohub,2013-07-22 11:32:00,
2013-07-22 06:37:00,67.6,64.2,29.70,NW,306,0.0,3.0,89,0.00,,,0.00,meteohub,2013-07-22 11:37:00,
2013-07-22 06:42:00,67.6,64.2,29.70,NW,306,0.0,3.0,89,0.00,,,0.00,meteohub,2013-07-22 11:42:00,
2013-07-22 06:47:00,67.6,64.2,29.71,NW,306,0.0,2.0,89,0.00,,,0.00,meteohub,2013-07-22 11:47:00,
2013-07-22 06:52:00,67.8,64.4,29.70,NW,308,0.0,0.0,89,0.00,,,0.00,meteohub,2013-07-22 11:52:00,
2013-07-22 06:57:00,67.8,64.4,29.69,NW,307,0.0,1.0,89,0.00,,,0.00,meteohub,2013-07-22 11:57:00,
2013-07-22 07:02:00,67.8,64.4,29.69,NW,307,0.0,1.0,89,0.00,,,0.00,meteohub,2013-07-22 12:02:00,
2013-07-22 07:07:00,68.0,64.6,29.69,NW,307,0.0,1.0,89,0.00,,,0.00,meteohub,2013-07-22 12:07:00,
2013-07-22 07:12:00,68.2,64.8,29.69,NW,306,0.0,1.0,89,0.00,,,0.00,meteohub,2013-07-22 12:12:00,
2013-07-22 07:17:00,68.2,64.8,29.69,NW,304,0.0,1.0,89,0.00,,,0.00,meteohub,2013-07-22 12:17:00,
2013-07-22 07:22:00,68.4,64.9,29.69,NW,304,0.0,2.0,89,0.00,,,0.00,meteohub,2013-07-22 12:22:00,
2013-07-22 07:27:00,68.4,64.9,29.68,NW,304,0.0,2.0,89,0.00,,,0.00,meteohub,2013-07-22 12:27:00,
2013-07-22 07:32:00,68.5,65.1,29.68,NW,304,0.0,1.0,89,0.00,,,0.00,meteohub,2013-07-22 12:32:00,
2013-07-22 07:37:00,68.7,65.7,29.68,West,281,0.0,0.0,90,0.00,,,0.00,meteohub,2013-07-22 12:37:00,
2013-07-22 07:42:00,69.1,66.0,29.69,WNW,284,1.0,3.0,90,0.00,,,0.00,meteohub,2013-07-22 12:42:00,
2013-07-22 07:47:00,69.3,66.2,29.69,WNW,284,0.0,3.0,90,0.00,,,0.00,meteohub,2013-07-22 12:47:00,
2013-07-22 07:52:00,69.4,66.4,29.69,WNW,284,0.0,3.0,90,0.00,,,0.00,meteohub,2013-07-22 12:52:00,
2013-07-22 07:57:00,69.6,66.6,29.69,NW,306,0.0,2.0,90,0.00,,,0.00,meteohub,2013-07-22 12:57:00,
2013-07-22 08:02:00,69.6,66.6,29.69,West,268,0.0,2.0,90,0.00,,,0.00,meteohub,2013-07-22 13:02:00,
2013-07-22 08:07:00,70.0,66.9,29.69,West,275,0.0,3.0,90,0.00,,,0.00,meteohub,2013-07-22 13:07:00,
2013-07-22 08:12:00,70.0,66.6,29.68,WNW,302,0.0,3.0,89,0.00,,,0.00,meteohub,2013-07-22 13:12:00,
2013-07-22 08:17:00,70.2,66.7,29.68,WNW,302,0.0,3.0,89,0.00,,,0.00,meteohub,2013-07-22 13:17:00,
2013-07-22 08:22:00,70.3,66.9,29.68,WNW,288,0.0,2.0,89,0.00,,,0.00,meteohub,2013-07-22 13:22:00,
2013-07-22 08:27:00,70.3,66.9,29.68,WNW,293,0.0,5.0,89,0.00,,,0.00,meteohub,2013-07-22 13:27:00,
2013-07-22 08:32:00,70.3,66.9,29.68,WNW,302,0.0,5.0,89,0.00,,,0.00,meteohub,2013-07-22 13:32:00,
2013-07-22 08:37:00,70.5,67.1,29.68,WNW,300,0.0,4.0,89,0.00,,,0.00,meteohub,2013-07-22 13:37:00,
2013-07-22 08:42:00,70.7,67.3,29.67,NW,317,0.0,4.0,89,0.00,,,0.00,meteohub,2013-07-22 13:42:00,
2013-07-22 08:47:00,70.9,67.5,29.67,NW,314,3.0,4.0,89,0.00,,,0.00,meteohub,2013-07-22 13:47:00,
2013-07-22 08:52:00,70.9,67.5,29.67,West,260,0.0,4.0,89,0.00,,,0.00,meteohub,2013-07-22 13:52:00,
2013-07-22 08:57:00,71.1,67.6,29.66,WSW,250,0.0,3.0,89,0.00,,,0.00,meteohub,2013-07-22 13:57:00,
2013-07-22 09:02:00,71.2,67.8,29.66,West,275,0.0,4.0,89,0.00,,,0.00,meteohub,2013-07-22 14:02:00,
2013-07-22 09:07:00,71.2,67.8,29.66,WSW,251,0.0,5.0,89,0.00,,,0.00,meteohub,2013-07-22 14:07:00,
2013-07-22 09:12:00,71.4,68.0,29.66,WNW,302,0.0,7.0,89,0.00,,,0.00,meteohub,2013-07-22 14:12:00,
2013-07-22 09:17:00,71.8,68.4,29.66,WNW,300,0.0,7.0,89,0.00,,,0.00,meteohub,2013-07-22 14:17:00,
2013-07-22 09:22:00,72.0,68.5,29.66,WSW,250,0.0,4.0,89,0.00,,,0.00,meteohub,2013-07-22 14:22:00,
2013-07-22 09:27:00,72.1,68.7,29.65,WNW,286,0.0,4.0,89,0.00,,,0.00,meteohub,2013-07-22 14:27:00,
2013-07-22 09:32:00,72.3,68.5,29.66,West,268,0.0,4.0,88,0.00,,,0.00,meteohub,2013-07-22 14:32:00,
2013-07-22 09:37:00,72.7,68.9,29.65,NW,305,0.0,4.0,88,0.00,,,0.00,meteohub,2013-07-22 14:37:00,
2013-07-22 09:42:00,72.9,69.1,29.65,NW,309,0.0,4.0,88,0.00,,,0.00,meteohub,2013-07-22 14:42:00,
2013-07-22 09:47:00,73.0,69.3,29.65,WSW,254,0.0,4.0,88,0.00,,,0.00,meteohub,2013-07-22 14:47:00,
2013-07-22 09:52:00,73.4,69.6,29.65,West,271,0.0,4.0,88,0.00,,,0.00,meteohub,2013-07-22 14:52:00,
2013-07-22 09:57:00,73.8,70.0,29.65,West,275,0.0,4.0,88,0.00,,,0.00,meteohub,2013-07-22 14:57:00,
2013-07-22 10:02:00,73.9,70.2,29.65,West,265,6.0,6.0,88,0.00,,,0.00,meteohub,2013-07-22 15:02:00,
2013-07-22 10:07:00,74.1,70.0,29.65,West,281,0.0,6.0,87,0.00,,,0.00,meteohub,2013-07-22 15:07:00,
2013-07-22 10:12:00,74.5,70.3,29.65,WNW,296,0.0,6.0,87,0.00,,,0.00,meteohub,2013-07-22 15:12:00,
2013-07-22 10:17:00,74.7,70.5,29.65,WNW,295,0.0,6.0,87,0.00,,,0.00,meteohub,2013-07-22 15:17:00,
2013-07-22 10:22:00,74.8,70.7,29.64,NW,321,0.0,6.0,87,0.00,,,0.00,meteohub,2013-07-22 15:22:00,
2013-07-22 10:27:00,75.2,70.7,29.64,NW,307,0.0,6.0,86,0.00,,,0.00,meteohub,2013-07-22 15:27:00,
2013-07-22 10:32:00,75.6,71.1,29.64,NW,311,0.0,5.0,86,0.00,,,0.00,meteohub,2013-07-22 15:32:00,
2013-07-22 10:37:00,75.9,71.4,29.64,West,275,0.0,6.0,86,0.00,,,0.00,meteohub,2013-07-22 15:37:00,
2013-07-22 10:42:00,76.3,71.4,29.64,West,276,0.0,6.0,85,0.00,,,0.00,meteohub,2013-07-22 15:42:00,
2013-07-22 10:47:00,76.5,72.0,29.63,WSW,257,2.0,6.0,86,0.00,,,0.00,meteohub,2013-07-22 15:47:00,
2013-07-22 10:52:00,76.8,72.0,29.63,West,263,3.0,3.0,85,0.00,,,0.00,meteohub,2013-07-22 15:52:00,
2013-07-22 10:57:00,77.2,72.3,29.64,WNW,291,0.0,4.0,85,0.00,,,0.00,meteohub,2013-07-22 15:57:00,
2013-07-22 11:02:00,77.5,72.3,29.64,West,267,0.0,5.0,84,0.00,,,0.00,meteohub,2013-07-22 16:02:00,
2013-07-22 11:07:00,78.1,72.9,29.64,WNW,287,0.0,6.0,84,0.00,,,0.00,meteohub,2013-07-22 16:07:00,
2013-07-22 11:12:00,78.4,72.9,29.64,WSW,237,0.0,6.0,83,0.00,,,0.00,meteohub,2013-07-22 16:12:00,
2013-07-22 11:17:00,78.6,73.0,29.64,WSW,248,1.0,3.0,83,0.00,,,0.00,meteohub,2013-07-22 16:17:00,
2013-07-22 11:22:00,79.0,73.0,29.64,WSW,254,2.0,3.0,82,0.00,,,0.00,meteohub,2013-07-22 16:22:00,
2013-07-22 11:27:00,79.2,72.9,29.64,WNW,296,1.0,5.0,81,0.00,,,0.00,meteohub,2013-07-22 16:27:00,
2013-07-22 11:32:00,79.3,72.7,29.64,SW,232,0.0,5.0,80,0.00,,,0.00,meteohub,2013-07-22 16:32:00,
2013-07-22 11:37:00,79.5,72.5,29.63,WSW,250,0.0,6.0,79,0.00,,,0.00,meteohub,2013-07-22 16:37:00,
2013-07-22 11:42:00,79.9,72.9,29.63,WSW,237,0.0,6.0,79,0.00,,,0.00,meteohub,2013-07-22 16:42:00,
2013-07-22 11:47:00,80.1,73.0,29.63,WSW,252,0.0,5.0,79,0.00,,,0.00,meteohub,2013-07-22 16:47:00,
2013-07-22 11:52:00,80.2,72.7,29.64,WSW,250,0.0,5.0,78,0.00,,,0.00,meteohub,2013-07-22 16:52:00,
2013-07-22 11:57:00,80.2,72.3,29.64,SE,142,0.0,5.0,77,0.00,,,0.00,meteohub,2013-07-22 16:57:00,
2013-07-22 12:02:00,80.8,72.5,29.63,WSW,237,0.0,5.0,76,0.00,,,0.00,meteohub,2013-07-22 17:02:00,
2013-07-22 12:07:00,81.0,72.0,29.64,SW,234,0.0,5.0,74,0.00,,,0.00,meteohub,2013-07-22 17:07:00,
2013-07-22 12:12:00,81.0,71.4,29.64,NNE,25,0.0,9.0,73,0.00,,,0.00,meteohub,2013-07-22 17:12:00,
2013-07-22 12:17:00,81.1,70.9,29.64,ENE,73,0.0,9.0,71,0.00,,,0.00,meteohub,2013-07-22 17:17:00,
2013-07-22 12:22:00,81.3,71.1,29.64,ENE,69,0.0,4.0,71,0.00,,,0.00,meteohub,2013-07-22 17:22:00,
2013-07-22 12:27:00,81.7,70.9,29.64,NE,45,0.0,4.0,70,0.00,,,0.00,meteohub,2013-07-22 17:27:00,
2013-07-22 12:32:00,81.7,70.9,29.64,NE,49,0.0,6.0,70,0.00,,,0.00,meteohub,2013-07-22 17:32:00,
2013-07-22 12:37:00,82.0,71.2,29.64,WNW,288,0.0,6.0,70,0.00,,,0.00,meteohub,2013-07-22 17:37:00,
2013-07-22 12:42:00,82.2,71.1,29.64,East,94,0.0,3.0,69,0.00,,,0.00,meteohub,2013-07-22 17:42:00,
2013-07-22 12:47:00,82.4,71.2,29.64,ENE,75,0.0,4.0,69,0.00,,,0.00,meteohub,2013-07-22 17:47:00,
2013-07-22 12:52:00,82.8,72.0,29.65,North,0,0.0,4.0,70,0.00,,,0.00,meteohub,2013-07-22 17:52:00,
2013-07-22 12:57:00,82.8,71.1,29.65,ENE,75,0.0,3.0,68,0.00,,,0.00,meteohub,2013-07-22 17:57:00,
2013-07-22 13:02:00,82.8,70.7,29.65,ENE,75,0.0,4.0,67,0.00,,,0.00,meteohub,2013-07-22 18:02:00,
2013-07-22 13:07:00,82.8,71.1,29.65,ENE,76,0.0,4.0,68,0.00,,,0.00,meteohub,2013-07-22 18:07:00,
2013-07-22 13:12:00,82.8,71.1,29.65,ENE,72,0.0,4.0,68,0.00,,,0.00,meteohub,2013-07-22 18:12:00,
2013-07-22 13:17:00,82.6,70.9,29.64,ENE,69,0.0,3.0,68,0.00,,,0.00,meteohub,2013-07-22 18:17:00,
2013-07-22 13:22:00,82.6,70.9,29.64,ENE,76,0.0,3.0,68,0.00,,,0.00,meteohub,2013-07-22 18:22:00,
2013-07-22 13:27:00,82.6,71.4,29.64,North,9,0.0,1.0,69,0.00,,,0.00,meteohub,2013-07-22 18:27:00,
2013-07-22 13:32:00,82.8,71.6,29.64,ENE,57,0.0,1.0,69,0.00,,,0.00,meteohub,2013-07-22 18:32:00,
2013-07-22 13:37:00,82.9,71.2,29.64,WNW,286,0.0,3.0,68,0.00,,,0.00,meteohub,2013-07-22 18:37:00,
2013-07-22 13:42:00,82.9,71.2,29.64,West,281,0.0,3.0,68,0.00,,,0.00,meteohub,2013-07-22 18:42:00,
2013-07-22 13:45:00,82.9,71.2,29.64,WNW,284,0.0,3.0,68,0.00,,,0.00,meteohub,2013-07-22 18:45:00,
2013-07-22 13:52:00,83.1,72.0,29.64,ENE,65,0.0,2.0,69,0.00,,,0.00,meteohub,2013-07-22 18:52:00,
2013-07-22 13:57:00,83.3,71.6,29.64,NNW,338,0.0,2.0,68,0.00,,,0.00,meteohub,2013-07-22 18:57:00,
2013-07-22 14:02:00,83.7,72.3,29.64,NNE,12,0.0,2.0,69,0.00,,,0.00,meteohub,2013-07-22 19:02:00,
2013-07-22 14:07:00,84.0,72.7,29.64,NW,321,1.0,2.0,69,0.00,,,0.00,meteohub,2013-07-22 19:07:00,
2013-07-22 14:12:00,84.6,72.9,29.64,ENE,69,0.0,6.0,68,0.00,,,0.00,meteohub,2013-07-22 19:12:00,
2013-07-22 14:17:00,84.9,73.2,29.63,West,263,0.0,6.0,68,0.00,,,0.00,meteohub,2013-07-22 19:17:00,
2013-07-22 14:22:00,85.3,72.7,29.63,WNW,283,0.0,6.0,66,0.00,,,0.00,meteohub,2013-07-22 19:22:00,
2013-07-22 14:27:00,85.6,73.4,29.63,West,273,0.0,4.0,67,0.00,,,0.00,meteohub,2013-07-22 19:27:00,
2013-07-22 14:32:00,86.2,73.4,29.63,North,355,1.0,4.0,66,0.00,,,0.00,meteohub,2013-07-22 19:32:00,
2013-07-22 14:37:00,86.2,72.5,29.63,ENE,67,0.0,3.0,64,0.00,,,0.00,meteohub,2013-07-22 19:37:00,
2013-07-22 14:42:00,86.4,73.6,29.63,NNW,344,0.0,3.0,66,0.00,,,0.00,meteohub,2013-07-22 19:42:00,
2013-07-22 14:47:00,86.7,73.9,29.63,WSW,252,0.0,3.0,66,0.00,,,0.00,meteohub,2013-07-22 19:47:00,
2013-07-22 14:52:00,87.1,73.9,29.63,ENE,65,0.0,2.0,65,0.00,,,0.00,meteohub,2013-07-22 19:52:00,
2013-07-22 14:57:00,87.3,73.6,29.63,NNE,15,0.0,4.0,64,0.00,,,0.00,meteohub,2013-07-22 19:57:00,
2013-07-22 15:02:00,87.6,73.4,29.63,NE,34,0.0,4.0,63,0.00,,,0.00,meteohub,2013-07-22 20:02:00,
2013-07-22 15:07:00,88.0,73.8,29.63,NW,310,0.0,4.0,63,0.00,,,0.00,meteohub,2013-07-22 20:07:00,
2013-07-22 15:12:00,88.3,73.2,29.63,NE,41,0.0,1.0,61,0.00,,,0.00,meteohub,2013-07-22 20:12:00,
2013-07-22 15:16:00,88.5,73.4,29.63,NNW,345,0.0,1.0,61,0.00,,,0.00,meteohub,2013-07-22 20:16:00,
2013-07-22 15:17:00,88.5,73.4,29.63,NNW,336,0.0,1.0,61,0.00,,,0.00,meteohub,2013-07-22 20:17:00,
2013-07-22 15:18:00,88.5,73.4,29.63,NNW,336,0.0,1.0,61,0.00,,,0.00,meteohub,2013-07-22 20:18:00,
2013-07-22 15:20:00,88.5,73.4,29.63,NW,322,0.0,7.0,61,0.00,,,0.00,meteohub,2013-07-22 20:20:00,
2013-07-22 15:25:00,88.3,73.2,29.63,NNW,341,0.0,7.0,61,0.00,,,0.00,meteohub,2013-07-22 20:25:00,
2013-07-22 15:30:00,88.0,72.9,29.63,NNE,17,0.0,4.0,61,0.00,,,0.00,meteohub,2013-07-22 20:30:00,
2013-07-22 15:35:00,87.4,71.8,29.63,East,82,0.0,2.0,60,0.00,,,0.00,meteohub,2013-07-22 20:35:00,
2013-07-22 15:40:00,87.1,72.5,29.63,NE,53,0.0,2.0,62,0.00,,,0.00,meteohub,2013-07-22 20:40:00,
2013-07-22 15:43:00,86.7,71.6,29.63,NE,53,0.0,2.0,61,0.00,,,0.00,meteohub,2013-07-22 20:43:00,
2013-07-22 15:48:00,86.4,70.9,29.64,ENE,57,0.0,2.0,60,0.00,,,0.00,meteohub,2013-07-22 20:48:00,
2013-07-22 15:53:00,85.8,70.3,29.64,NNE,17,0.0,4.0,60,0.00,,,0.00,meteohub,2013-07-22 20:53:00,
2013-07-22 15:59:00,85.5,69.4,29.64,ENE,78,0.0,4.0,59,0.00,,,0.00,meteohub,2013-07-22 20:59:00,
2013-07-22 16:04:00,85.3,68.4,29.64,NE,36,0.0,4.0,57,0.00,,,0.00,meteohub,2013-07-22 21:04:00,
2013-07-22 16:09:00,85.3,68.4,29.63,NE,40,0.0,3.0,57,0.00,,,0.00,meteohub,2013-07-22 21:09:00,
2013-07-22 16:14:00,85.5,66.9,29.63,East,79,2.0,5.0,54,0.00,,,0.00,meteohub,2013-07-22 21:14:00,
2013-07-22 16:19:00,85.6,67.1,29.63,NE,42,0.0,5.0,54,0.00,,,0.00,meteohub,2013-07-22 21:19:00,
2013-07-22 16:24:00,85.8,67.3,29.63,East,87,5.0,6.0,54,0.00,,,0.00,meteohub,2013-07-22 21:24:00,
2013-07-22 16:29:00,86.2,67.6,29.63,East,84,0.0,6.0,54,0.00,,,0.00,meteohub,2013-07-22 21:29:00,
2013-07-22 16:34:00,86.4,67.8,29.63,NE,56,0.0,6.0,54,0.00,,,0.00,meteohub,2013-07-22 21:34:00,
2013-07-22 16:39:00,86.5,68.0,29.63,NE,42,0.0,5.0,54,0.00,,,0.00,meteohub,2013-07-22 21:39:00,
2013-07-22 16:44:00,86.7,66.4,29.63,NE,46,2.0,4.0,51,0.00,,,0.00,meteohub,2013-07-22 21:44:00,
2013-07-22 16:49:00,86.7,65.8,29.63,NNE,19,0.0,5.0,50,0.00,,,0.00,meteohub,2013-07-22 21:49:00,
2013-07-22 16:54:00,86.5,65.7,29.63,ENE,75,0.0,6.0,50,0.00,,,0.00,meteohub,2013-07-22 21:54:00,
2013-07-22 16:59:00,86.5,65.7,29.64,East,79,3.0,6.0,50,0.00,,,0.00,meteohub,2013-07-22 21:59:00,
2013-07-22 17:05:00,86.4,65.5,29.64,NNE,14,0.0,7.0,50,0.00,,,0.00,meteohub,2013-07-22 22:05:00,
2013-07-22 17:10:00,86.2,65.3,29.64,East,87,0.0,7.0,50,0.00,,,0.00,meteohub,2013-07-22 22:10:00,
2013-07-22 17:15:00,86.0,65.1,29.65,NNE,29,0.0,5.0,50,0.00,,,0.00,meteohub,2013-07-22 22:15:00,
2013-07-22 17:20:00,85.8,64.4,29.65,NNE,12,0.0,4.0,49,0.00,,,0.00,meteohub,2013-07-22 22:20:00,
2013-07-22 17:25:00,85.8,64.4,29.65,ENE,63,0.0,4.0,49,0.00,,,0.00,meteohub,2013-07-22 22:25:00,
2013-07-22 17:30:00,85.8,64.4,29.65,NNW,344,0.0,4.0,49,0.00,,,0.00,meteohub,2013-07-22 22:30:00,
2013-07-22 17:35:00,85.6,64.2,29.65,NNE,18,0.0,4.0,49,0.00,,,0.00,meteohub,2013-07-22 22:35:00,
2013-07-22 17:40:00,85.6,64.9,29.65,NE,43,0.0,6.0,50,0.00,,,0.00,meteohub,2013-07-22 22:40:00,
2013-07-22 17:45:00,85.5,64.8,29.65,ENE,71,1.0,6.0,50,0.00,,,0.00,meteohub,2013-07-22 22:45:00,
2013-07-22 17:50:00,85.3,65.1,29.65,East,85,3.0,6.0,51,0.00,,,0.00,meteohub,2013-07-22 22:50:00,
2013-07-22 17:55:00,84.7,65.1,29.65,East,83,1.0,5.0,52,0.00,,,0.00,meteohub,2013-07-22 22:55:00,
2013-07-22 18:00:00,84.4,64.8,29.65,East,82,1.0,5.0,52,0.00,,,0.00,meteohub,2013-07-22 23:00:00,
2013-07-22 18:06:00,84.0,64.6,29.65,ENE,71,0.0,6.0,52,0.00,,,0.00,meteohub,2013-07-22 23:06:00,
2013-07-22 18:11:00,83.8,64.9,29.65,NNE,28,0.0,6.0,53,0.00,,,0.00,meteohub,2013-07-22 23:11:00,
2013-07-22 18:16:00,83.5,64.6,29.65,East,80,2.0,6.0,53,0.00,,,0.00,meteohub,2013-07-22 23:16:00,
2013-07-22 18:21:00,82.9,64.0,29.66,East,79,4.0,6.0,53,0.00,,,0.00,meteohub,2013-07-22 23:21:00,
2013-07-22 18:26:00,82.8,64.4,29.65,ENE,74,0.0,6.0,54,0.00,,,0.00,meteohub,2013-07-22 23:26:00,
2013-07-22 18:31:00,82.4,64.0,29.66,NE,43,0.0,6.0,54,0.00,,,0.00,meteohub,2013-07-22 23:31:00,
2013-07-22 18:36:00,82.0,63.7,29.66,East,79,1.0,6.0,54,0.00,,,0.00,meteohub,2013-07-22 23:36:00,
2013-07-22 18:41:00,81.9,64.0,29.67,ENE,76,0.0,7.0,55,0.00,,,0.00,meteohub,2013-07-22 23:41:00,
2013-07-22 18:46:00,81.7,63.9,29.67,East,86,1.0,7.0,55,0.00,,,0.00,meteohub,2013-07-22 23:46:00,
2013-07-22 18:52:00,81.3,63.7,29.67,NNE,32,0.0,5.0,55,0.00,,,0.00,meteohub,2013-07-22 23:52:00,
2013-07-22 18:57:00,81.1,63.5,29.68,ENE,74,1.0,5.0,55,0.00,,,0.00,meteohub,2013-07-22 23:57:00,
2013-07-22 19:02:00,81.0,63.3,29.68,ENE,78,2.0,4.0,55,0.00,,,0.00,meteohub,2013-07-23 00:02:00,
2013-07-22 19:07:00,80.6,62.4,29.68,ENE,67,1.0,4.0,54,0.00,,,0.00,meteohub,2013-07-23 00:07:00,
2013-07-22 19:12:00,80.4,62.8,29.69,NE,56,0.0,5.0,55,0.00,,,0.00,meteohub,2013-07-23 00:12:00,
2013-07-22 19:17:00,80.2,63.1,29.69,NE,56,0.0,5.0,56,0.00,,,0.00,meteohub,2013-07-23 00:17:00,
2013-07-22 19:22:00,80.1,62.4,29.69,ENE,60,0.0,2.0,55,0.00,,,0.00,meteohub,2013-07-23 00:22:00,
2013-07-22 19:27:00,79.7,62.1,29.70,ENE,63,0.0,6.0,55,0.00,,,0.00,meteohub,2013-07-23 00:27:00,
2013-07-22 19:32:00,79.5,61.9,29.70,ENE,74,0.0,6.0,55,0.00,,,0.00,meteohub,2013-07-23 00:32:00,
2013-07-22 19:37:00,79.3,62.2,29.70,ENE,70,0.0,6.0,56,0.00,,,0.00,meteohub,2013-07-23 00:37:00,
2013-07-22 19:42:00,79.0,61.9,29.70,ENE,73,0.0,5.0,56,0.00,,,0.00,meteohub,2013-07-23 00:42:00,
2013-07-22 19:47:00,78.6,61.5,29.71,East,84,0.0,5.0,56,0.00,,,0.00,meteohub,2013-07-23 00:47:00,
2013-07-22 19:52:00,78.6,62.1,29.71,NNW,341,0.0,4.0,57,0.00,,,0.00,meteohub,2013-07-23 00:52:00,
2013-07-22 19:57:00,78.3,62.2,29.71,North,5,0.0,4.0,58,0.00,,,0.00,meteohub,2013-07-23 00:57:00,
2013-07-22 20:02:00,78.1,62.1,29.71,NE,46,0.0,3.0,58,0.00,,,0.00,meteohub,2013-07-23 01:02:00,
2013-07-22 20:07:00,77.7,61.7,29.72,NE,36,0.0,3.0,58,0.00,,,0.00,meteohub,2013-07-23 01:07:00,
2013-07-22 20:12:00,77.5,61.5,29.72,NE,52,0.0,2.0,58,0.00,,,0.00,meteohub,2013-07-23 01:12:00,
2013-07-22 20:17:00,77.2,61.3,29.72,ENE,73,0.0,4.0,58,0.00,,,0.00,meteohub,2013-07-23 01:17:00,
2013-07-22 20:22:00,76.8,61.0,29.72,ENE,67,0.0,4.0,58,0.00,,,0.00,meteohub,2013-07-23 01:22:00,
2013-07-22 20:27:00,76.6,61.2,29.72,North,5,0.0,5.0,59,0.00,,,0.00,meteohub,2013-07-23 01:27:00,
2013-07-22 20:32:00,76.5,61.0,29.73,East,82,0.0,5.0,59,0.00,,,0.00,meteohub,2013-07-23 01:32:00,
2013-07-22 20:37:00,76.3,61.3,29.73,East,82,0.0,5.0,60,0.00,,,0.00,meteohub,2013-07-23 01:37:00,
2013-07-22 20:42:00,75.9,61.0,29.73,NE,53,0.0,4.0,60,0.00,,,0.00,meteohub,2013-07-23 01:42:00,
2013-07-22 20:47:00,75.7,60.8,29.73,NE,53,1.0,2.0,60,0.00,,,0.00,meteohub,2013-07-23 01:47:00,
2013-07-22 20:52:00,75.6,60.6,29.73,East,80,1.0,2.0,60,0.00,,,0.00,meteohub,2013-07-23 01:52:00,
2013-07-22 20:57:00,75.2,59.9,29.73,East,82,0.0,3.0,59,0.00,,,0.00,meteohub,2013-07-23 01:57:00,
2013-07-22 21:02:00,74.8,59.5,29.73,East,86,0.0,5.0,59,0.00,,,0.00,meteohub,2013-07-23 02:02:00,
2013-07-22 21:07:00,74.8,60.1,29.74,East,86,0.0,5.0,60,0.00,,,0.00,meteohub,2013-07-23 02:07:00,
2013-07-22 21:12:00,74.7,59.4,29.74,East,80,1.0,5.0,59,0.00,,,0.00,meteohub,2013-07-23 02:12:00,
2013-07-22 21:17:00,74.5,59.2,29.74,East,85,5.0,5.0,59,0.00,,,0.00,meteohub,2013-07-23 02:17:00,
2013-07-22 21:22:00,74.1,59.4,29.74,East,80,3.0,6.0,60,0.00,,,0.00,meteohub,2013-07-23 02:22:00,
2013-07-22 21:27:00,73.9,59.2,29.75,ENE,65,0.0,6.0,60,0.00,,,0.00,meteohub,2013-07-23 02:27:00,
2013-07-22 21:32:00,73.8,59.0,29.75,ENE,78,0.0,6.0,60,0.00,,,0.00,meteohub,2013-07-23 02:32:00,
2013-07-22 21:37:00,73.6,59.4,29.75,ENE,74,1.0,4.0,61,0.00,,,0.00,meteohub,2013-07-23 02:37:00,
2013-07-22 21:42:00,73.4,59.2,29.75,East,79,0.0,4.0,61,0.00,,,0.00,meteohub,2013-07-23 02:42:00,
2013-07-22 21:47:00,73.2,59.0,29.75,East,79,0.0,4.0,61,0.00,,,0.00,meteohub,2013-07-23 02:47:00,
2013-07-22 21:52:00,73.0,58.8,29.76,East,80,0.0,4.0,61,0.00,,,0.00,meteohub,2013-07-23 02:52:00,
2013-07-22 21:57:00,72.9,59.0,29.76,East,79,0.0,4.0,62,0.00,,,0.00,meteohub,2013-07-23 02:57:00,
2013-07-22 22:02:00,72.9,59.0,29.77,ENE,78,0.0,1.0,62,0.00,,,0.00,meteohub,2013-07-23 03:02:00,
2013-07-22 22:07:00,72.7,58.8,29.77,ENE,78,0.0,2.0,62,0.00,,,0.00,meteohub,2013-07-23 03:07:00,
2013-07-22 22:12:00,72.5,58.8,29.77,ENE,78,0.0,2.0,62,0.00,,,0.00,meteohub,2013-07-23 03:12:00,
2013-07-22 22:17:00,72.3,58.6,29.77,ENE,78,0.0,1.0,62,0.00,,,0.00,meteohub,2013-07-23 03:17:00,
2013-07-22 22:22:00,72.1,58.8,29.77,ENE,78,0.0,1.0,63,0.00,,,0.00,meteohub,2013-07-23 03:22:00,
2013-07-22 22:27:00,72.1,58.8,29.77,ENE,78,0.0,0.0,63,0.00,,,0.00,meteohub,2013-07-23 03:27:00,
2013-07-22 22:32:00,72.1,58.8,29.78,ENE,78,0.0,0.0,63,0.00,,,0.00,meteohub,2013-07-23 03:32:00,
2013-07-22 22:37:00,72.0,58.6,29.78,ENE,78,0.0,0.0,63,0.00,,,0.00,meteohub,2013-07-23 03:37:00,
2013-07-22 22:42:00,72.0,58.6,29.78,ENE,78,0.0,0.0,63,0.00,,,0.00,meteohub,2013-07-23 03:42:00,
2013-07-22 22:47:00,71.8,59.0,29.78,ENE,78,0.0,0.0,64,0.00,,,0.00,meteohub,2013-07-23 03:47:00,
2013-07-22 22:52:00,71.8,59.0,29.78,ENE,78,0.0,0.0,64,0.00,,,0.00,meteohub,2013-07-23 03:52:00,
2013-07-22 22:57:00,71.4,58.6,29.78,NE,37,0.0,1.0,64,0.00,,,0.00,meteohub,2013-07-23 03:57:00,
2013-07-22 23:01:00,71.4,58.1,29.78,NE,37,0.0,1.0,63,0.00,,,0.00,meteohub,2013-07-23 04:01:00,
2013-07-22 23:02:00,71.4,58.1,29.78,NE,37,0.0,1.0,63,0.00,,,0.00,meteohub,2013-07-23 04:02:00,
2013-07-22 23:04:00,71.2,57.9,29.79,NE,37,0.0,1.0,63,0.00,,,0.00,meteohub,2013-07-23 04:04:00,
2013-07-22 23:05:00,71.2,57.9,29.78,NE,37,0.0,1.0,63,0.00,,,0.00,meteohub,2013-07-23 04:05:00,
2013-07-22 23:10:00,71.2,57.9,29.79,NE,37,0.0,1.0,63,0.00,,,0.00,meteohub,2013-07-23 04:10:00,
2013-07-22 23:15:00,71.1,57.7,29.79,NE,37,0.0,1.0,63,0.00,,,0.00,meteohub,2013-07-23 04:15:00,
2013-07-22 23:20:00,71.1,57.7,29.79,NE,37,0.0,0.0,63,0.00,,,0.00,meteohub,2013-07-23 04:20:00,
2013-07-22 23:25:00,70.9,57.7,29.79,NE,37,0.0,0.0,63,0.00,,,0.00,meteohub,2013-07-23 04:25:00,
2013-07-22 23:30:00,70.9,57.7,29.80,NE,39,0.0,1.0,63,0.00,,,0.00,meteohub,2013-07-23 04:30:00,
2013-07-22 23:36:00,70.7,57.6,29.80,NE,39,0.0,1.0,63,0.00,,,0.00,meteohub,2013-07-23 04:36:00,
2013-07-22 23:41:00,70.5,57.7,29.80,NE,38,0.0,1.0,64,0.00,,,0.00,meteohub,2013-07-23 04:41:00,
2013-07-22 23:46:00,70.5,57.7,29.80,NE,39,0.0,1.0,64,0.00,,,0.00,meteohub,2013-07-23 04:46:00,
2013-07-22 23:51:00,70.3,57.6,29.80,NE,39,0.0,1.0,64,0.00,,,0.00,meteohub,2013-07-23 04:51:00,
2013-07-22 23:56:00,70.3,57.6,29.81,NE,39,0.0,1.0,64,0.00,,,0.00,meteohub,2013-07-23 04:56:00,